Weather History for Worland, WY

Change the Weather History Date:

Tuesday, January 29, 2013

  Actual Average Record
Temperature  
Mean Temperature 11 °F 18 °F  
Max Temperature 22 °F 32 °F 52 °F (1988)
Min Temperature 0 °F 5 °F -31 °F (1980)
Degree Days  
Heating Degree Days 54 46  
Month to date heating degree days 1485 1393  
Since 1 July heating degree days 4227 4756  
Moisture  
Dew Point 5 °F    
Average Humidity 80    
Maximum Humidity 92    
Minimum Humidity 67    
Precipitation  
Precipitation 0.00 in 0.01 in 0.12 in (2009)
Month to date precipitation 0.10 0.22  
Year to date precipitation 0.10 0.22  
Sea Level Pressure  
Sea Level Pressure 30.03 in    
Wind  
Wind Speed 5 mph (South)    
Max Wind Speed 15 mph    
Max Gust Speed 23 mph    
Visibility 9 miles    
Events      
T = Trace of Precipitation, MM = Missing Value Source: NWS Daily Summary

Daily Weather History Graph

Daily Weather History Graph

Search for Another Location

Airport:

Trip Planner

Search our weather history database for the weather conditions in past years. The results will help you decide how hot, cold, wet, or windy it might be!

Date:

Astronomy

Jan. 29, 2013 Rise Set
Actual Time 7:31 AM MST 5:18 PM MST
Civil Twilight 7:01 AM MST 5:49 PM MST
Nautical Twilight 6:26 AM MST 6:24 PM MST
Astronomical Twilight 5:52 AM MST 6:58 PM MST
Moon 8:26 PM MST (1/29) 8:23 AM MST (1/29)
Length of Visible Light 10h 48m
Length of Day
9h 46m
Waning Gibbous, 93% of the Moon is Illuminated
Jan 29
Waning Gibbous
Feb 3
Last Quarter
Feb 10
New
Feb 17
First Quarter
Feb 25
Full

Hourly Weather History & Observations

Time (MST) Temp. Windchill Dew Point Humidity Pressure Visibility Wind Dir Wind Speed Gust Speed Precip Events Conditions
12:26 AM 3.2 °F -6.2 °F 3.2 °F 100% 29.74 in 0.8 mi SSE 4.6 mph - N/A   Mist
12:28 AM 3.2 °F -4.2 °F 3.2 °F 100% 29.74 in 1.2 mi South 3.5 mph - N/A   Scattered Clouds
12:31 AM 3.2 °F -6.2 °F 1.4 °F 92% 29.74 in 4.0 mi SSE 4.6 mph - N/A   Scattered Clouds
12:53 AM 6.1 °F -6.8 °F 3.9 °F 91% 29.91 in 10.0 mi South 8.1 mph - N/A   Clear
1:53 AM 6.1 °F -8.7 °F 3.9 °F 91% 29.89 in 10.0 mi South 10.4 mph - N/A   Clear
2:53 AM 1.0 °F -12.9 °F -2.0 °F 87% 29.90 in 10.0 mi South 8.1 mph - N/A   Clear
3:53 AM 3.0 °F -4.4 °F -0.0 °F 87% 29.89 in 10.0 mi SE 3.5 mph - N/A   Partly Cloudy
4:53 AM 1.9 °F - -2.0 °F 83% 29.90 in 10.0 mi Calm Calm - N/A   Overcast
5:53 AM 1.0 °F - -2.9 °F 83% 29.92 in 10.0 mi Calm Calm - N/A   Overcast
6:53 AM 1.9 °F -10.6 °F -2.0 °F 83% 29.93 in 10.0 mi South 6.9 mph - N/A   Mostly Cloudy
7:53 AM 3.0 °F -4.4 °F -0.0 °F 87% 29.96 in 10.0 mi South 3.5 mph - N/A   Clear
8:53 AM 8.1 °F - 5.0 °F 87% 29.98 in 10.0 mi Calm Calm - N/A   Overcast
9:53 AM 10.0 °F - 7.0 °F 87% 30.02 in 10.0 mi Calm Calm - N/A   Overcast
10:53 AM 12.9 °F 6.9 °F 10.9 °F 92% 30.05 in 10.0 mi SSE 3.5 mph - N/A   Overcast
11:53 AM 17.1 °F - 10.9 °F 77% 30.07 in 10.0 mi Calm Calm - N/A   Mostly Cloudy
12:53 PM 17.1 °F - 10.9 °F 77% 30.06 in 10.0 mi Calm Calm - N/A   Partly Cloudy
1:53 PM 19.9 °F - 10.9 °F 68% 30.07 in 10.0 mi Calm Calm - N/A   Clear
2:53 PM 19.0 °F 13.9 °F 12.9 °F 77% 30.11 in 10.0 mi South 3.5 mph - N/A   Scattered Clouds
3:11 PM 21.2 °F - 12.2 °F 68% 29.91 in 10.0 mi Calm Calm - N/A   Mostly Cloudy
3:53 PM 21.9 °F - 14.0 °F 72% 30.14 in 10.0 mi Calm Calm - N/A   Mostly Cloudy
4:53 PM 19.9 °F 13.4 °F 12.9 °F 74% 30.18 in 10.0 mi NNW 4.6 mph - N/A   Partly Cloudy
5:53 PM 18.0 °F 6.1 °F 10.9 °F 74% 30.23 in 10.0 mi NW 10.4 mph - N/A   Clear
6:53 PM 14.0 °F 2.0 °F 7.0 °F 74% 30.27 in 10.0 mi NW 9.2 mph - N/A   Clear
7:53 PM 14.0 °F 2.0 °F 7.0 °F 74% 30.28 in 10.0 mi WNW 9.2 mph - N/A   Partly Cloudy
8:53 PM 5.0 °F -2.1 °F 1.9 °F 87% 30.29 in 9.0 mi ENE 3.5 mph - N/A   Clear
9:53 PM 3.0 °F - -0.0 °F 87% 30.28 in 9.0 mi North - - N/A   Clear
10:53 PM 5.0 °F -10.8 °F 1.0 °F 84% 30.25 in 9.0 mi SE 11.5 mph - N/A   Scattered Clouds
11:53 PM 5.0 °F -12.3 °F 1.0 °F 84% 30.22 in 9.0 mi SE 13.8 mph - N/A   Mostly Cloudy